Weather History for Fort Stockton, TX

Change the Weather History Date:

Saturday, February 15, 2014

  Actual Average Record
Temperature  
Mean Temperature 64 °F -  
Max Temperature 84 °F 64 °F 86 °F (2000)
Min Temperature 45 °F 40 °F 26 °F (2007)
Growing Degree Days 14 (Base 50)    
Moisture  
Dew Point 25 °F    
Average Humidity 27    
Maximum Humidity 49    
Minimum Humidity 9    
Precipitation  
Precipitation 0.00 in - - ()
Sea Level Pressure  
Sea Level Pressure 29.94 in    
Wind  
Wind Speed 10 mph (SSW)    
Max Wind Speed 20 mph    
Max Gust Speed 28 mph    
Visibility 10 miles    
Events      
Averages and records for this station are not official NWS values.
T = Trace of Precipitation, MM = Missing Value Source: NWS Daily Summary

Daily Weather History Graph

Daily Weather History Graph

Search for Another Location

Airport:

Trip Planner

Search our weather history database for the weather conditions in past years. The results will help you decide how hot, cold, wet, or windy it might be!

Date:

Astronomy

Feb. 15, 2014 Rise Set
Actual Time 7:32 AM CST 6:39 PM CST
Civil Twilight 7:07 AM CST 7:04 PM CST
Nautical Twilight 6:39 AM CST 7:32 PM CST
Astronomical Twilight 6:11 AM CST 8:00 PM CST
Moon 7:34 PM CST (2/15) 7:38 AM CST (2/15)
Length of Visible Light 11h 56m
Length of Day
11h 06m
Waxing Gibbous, 99% of the Moon is Illuminated
Feb 15
Waxing Gibbous
Feb 22
Last Quarter
Mar 1
New
Mar 8
First Quarter
Mar 16
Full

Hourly Weather History & Observations

Time (CST) Temp. Windchill Dew Point Humidity Pressure Visibility Wind Dir Wind Speed Gust Speed Precip Events Conditions
12:53 AM 54.0 °F - 28.0 °F 37% 29.99 in 10.0 mi SE 11.5 mph - N/A   Clear
1:53 AM 54.0 °F - 28.0 °F 37% 29.95 in 10.0 mi SSE 17.3 mph - N/A   Clear
2:53 AM 55.0 °F - 28.0 °F 35% 29.94 in 10.0 mi SSE 19.6 mph 27.6 mph N/A   Clear
3:53 AM 54.0 °F - 28.0 °F 37% 29.92 in 10.0 mi South 12.7 mph - N/A   Clear
4:53 AM 46.9 °F - 27.0 °F 46% 29.95 in 10.0 mi WSW 6.9 mph - N/A   Clear
5:53 AM 46.0 °F 44.8 °F 26.1 °F 46% 29.97 in 10.0 mi SSW 3.5 mph - N/A   Clear
6:53 AM 45.0 °F 40.1 °F 27.0 °F 49% 29.99 in 10.0 mi SSW 9.2 mph - N/A   Clear
7:53 AM 46.0 °F 42.5 °F 27.0 °F 47% 30.01 in 10.0 mi SW 6.9 mph - N/A   Clear
8:53 AM 54.0 °F - 28.0 °F 37% 30.01 in 10.0 mi West 3.5 mph - N/A   Clear
9:53 AM 61.0 °F - 28.0 °F 29% 30.01 in 10.0 mi Calm Calm - N/A   Clear
10:53 AM 68.0 °F - 26.1 °F 21% 30.00 in 10.0 mi WSW 4.6 mph - N/A   Clear
11:53 AM 77.0 °F - 24.1 °F 14% 29.99 in 10.0 mi NW 8.1 mph - N/A   Clear
12:53 PM 81.0 °F - 21.9 °F 11% 29.96 in 10.0 mi NW 10.4 mph - N/A   Clear
1:53 PM 82.0 °F - 21.0 °F 10% 29.93 in 10.0 mi North - - N/A   Clear
2:53 PM 84.9 °F - 21.0 °F 10% 29.89 in 10.0 mi NW 10.4 mph - N/A   Clear
3:53 PM 84.9 °F - 19.9 °F 9% 29.88 in 10.0 mi Calm Calm - N/A   Clear
4:53 PM 84.9 °F - 19.0 °F 9% 29.88 in 10.0 mi NW 3.5 mph - N/A   Clear
5:53 PM 82.9 °F - 19.0 °F 9% 29.88 in 10.0 mi Calm Calm - N/A   Clear
6:53 PM 73.9 °F - 23.0 °F 15% 29.90 in 10.0 mi ESE 4.6 mph - N/A   Clear
7:53 PM 66.9 °F - 26.1 °F 21% 29.92 in 10.0 mi SSE 9.2 mph - N/A   Clear
8:53 PM 63.0 °F - 26.1 °F 25% 29.92 in 10.0 mi SSE 12.7 mph - N/A   Clear
9:53 PM 62.1 °F - 27.0 °F 26% 29.92 in 10.0 mi SSE 11.5 mph - N/A   Clear
10:53 PM 57.9 °F - 27.0 °F 31% 29.92 in 10.0 mi SSE 12.7 mph - N/A   Clear
11:53 PM 55.9 °F - 26.1 °F 32% 29.91 in 10.0 mi South 10.4 mph - N/A   Clear